Total_Precipitation_Accumulation
0.30 0.54 0.83 0.70 0.45 0.57 0.62 0.45 0.40 0.04 0.23 0.93 0.89 0.34 0.06 0.02 0.02 0.03 0.03 0.01 0.00 0.00 0.00 0.01 0.01 0.02 0.04 0.01 0.02 0.05 0.07 0.11 0.04 0.01 0.00 0.01 0.03 0.02 0.14 0.32 0.36 0.37 0.31 0.40
0.37 0.39 0.59 1.01 0.86 0.83 0.65 0.60 0.37 0.24 0.58 0.53 0.35 0.11 0.03 0.04 0.02 0.03 0.05 0.03 0.00 0.00 0.00 0.02 0.03 0.02 0.02 0.00 0.02 0.09 0.23 0.33 0.23 0.16 0.10 0.04 0.03 0.01 0.06 0.14 0.19 0.15 0.16 0.16
0.52 0.41 0.44 0.59 1.08 1.19 0.84 0.88 0.66 0.74 0.93 0.29 0.09 0.06 0.09 0.13 0.03 0.02 0.05 0.05 0.03 0.01 0.01 0.01 0.02 0.02 0.00 0.00 0.01 0.06 0.18 0.16 0.14 0.12 0.08 0.04 0.05 0.04 0.09 0.18 0.24 0.08 0.03 0.03
0.62 0.51 0.42 0.47 0.68 1.25 1.21 1.27 0.79 0.21 0.46 0.23 0.05 0.08 0.06 0.03 0.05 0.08 0.07 0.12 0.05 0.04 0.04 0.02 0.02 0.03 0.01 0.00 0.01 0.02 0.09 0.05 0.04 0.03 0.06 0.07 0.05 0.04 0.06 0.14 0.12 0.13 0.04 0.01
0.65 0.58 0.54 0.48 0.61 1.04 1.23 1.09 0.55 0.25 0.03 0.01 0.05 0.16 0.18 0.04 0.02 0.08 0.09 0.14 0.07 0.11 0.09 0.02 0.01 0.05 0.05 0.03 0.02 0.03 0.05 0.07 0.04 0.02 0.01 0.03 0.03 0.01 0.01 0.04 0.05 0.08 0.06 0.05
0.50 0.68 0.60 0.55 0.65 1.13 1.52 0.78 0.26 0.40 0.43 0.13 0.15 0.15 0.04 0.07 0.16 0.09 0.03 0.05 0.13 0.17 0.14 0.09 0.06 0.07 0.05 0.05 0.04 0.06 0.05 0.06 0.10 0.09 0.03 0.21 0.22 0.00 0.00 0.00 0.00 0.00 0.00 0.00
0.36 0.52 0.58 0.62 0.63 0.73 0.50 0.38 0.38 0.35 0.32 0.45 0.20 0.02 0.01 0.03 0.10 0.13 0.10 0.13 0.08 0.05 0.06 0.11 0.16 0.12 0.04 0.01 0.01 0.02 0.04 0.08 0.19 0.15 0.14 0.33 0.06 0.00 0.00 0.00 0.00 0.00 0.00 0.00
0.33 0.36 0.49 0.47 0.45 0.55 0.36 0.33 0.42 0.52 0.42 0.12 0.24 0.18 0.07 0.07 0.12 0.14 0.14 0.14 0.11 0.12 0.16 0.18 0.23 0.21 0.23 0.15 0.07 0.04 0.02 0.05 0.14 0.12 0.11 0.05 0.00 0.00 0.00 0.00 0.00 0.00 0.00 0.00
0.43 0.34 0.39 0.34 0.30 0.43 0.37 0.33 0.29 0.41 0.40 0.19 0.07 0.11 0.15 0.17 0.15 0.19 0.16 0.13 0.12 0.14 0.17 0.23 0.20 0.13 0.14 0.11 0.10 0.06 0.11 0.13 0.18 0.15 0.07 0.04 0.03 0.00 0.00 0.00 0.03 0.01 0.00 0.00
0.53 0.36 0.26 0.26 0.23 0.32 0.39 0.24 0.17 0.38 0.57 0.20 0.10 0.14 0.17 0.10 0.10 0.18 0.10 0.13 0.28 0.27 0.28 0.27 0.13 0.04 0.02 0.07 0.10 0.11 0.14 0.20 0.25 0.22 0.16 0.09 0.00 0.00 0.00 0.03 0.05 0.00 0.00 0.01
0.38 0.30 0.20 0.20 0.22 0.27 0.37 0.21 0.09 0.25 0.63 0.37 0.28 0.09 0.16 0.16 0.12 0.11 0.08 0.15 0.21 0.31 0.37 0.26 0.19 0.12 0.03 0.02 0.02 0.02 0.07 0.11 0.12 0.16 0.20 0.13 0.00 0.00 0.01 0.04 0.01 0.00 0.01 0.02
0.17 0.19 0.16 0.22 0.31 0.28 0.31 0.29 0.14 0.22 0.47 0.27 0.27 0.17 0.10 0.09 0.11 0.07 0.05 0.08 0.07 0.10 0.11 0.15 0.16 0.17 0.09 0.04 0.03 0.01 0.03 0.04 0.06 0.05 0.06 0.01 0.00 0.00 0.00 0.01 0.01 0.02 0.02 0.04
0.08 0.11 0.16 0.24 0.31 0.27 0.27 0.25 0.24 0.27 0.27 0.17 0.21 0.21 0.10 0.05 0.04 0.02 0.08 0.05 0.03 0.04 0.09 0.15 0.17 0.16 0.06 0.06 0.04 0.00 0.00 0.00 0.00 0.02 0.01 0.00 0.00 0.00 0.00 0.01 0.02 0.02 0.02 0.03
0.11 0.13 0.15 0.21 0.32 0.20 0.26 0.22 0.26 0.27 0.17 0.13 0.14 0.07 0.12 0.09 0.02 0.01 0.01 0.02 0.03 0.03 0.05 0.13 0.24 0.17 0.10 0.08 0.03 0.04 0.01 0.00 0.00 0.02 0.02 0.01 0.01 0.00 0.00 0.01 0.01 0.02 0.02 0.01
0.19 0.16 0.15 0.22 0.32 0.18 0.25 0.23 0.22 0.29 0.16 0.13 0.12 0.11 0.14 0.09 0.04 0.04 0.08 0.02 0.02 0.09 0.08 0.14 0.19 0.11 0.07 0.09 0.06 0.02 0.00 0.01 0.01 0.02 0.00 0.00 0.01 0.00 0.00 0.01 0.01 0.01 0.00 0.00
0.21 0.18 0.17 0.28 0.28 0.30 0.41 0.69 0.35 0.19 0.26 0.18 0.10 0.16 0.14 0.06 0.04 0.10 0.10 0.10 0.03 0.11 0.18 0.11 0.11 0.12 0.12 0.08 0.04 0.01 0.00 0.00 0.00 0.00 0.00 0.00 0.00 0.00 0.00 0.00 0.01 0.00 0.00 0.00
0.16 0.19 0.20 0.28 0.28 0.22 0.15 0.19 0.09 0.07 0.20 0.37 0.28 0.26 0.27 0.26 0.18 0.18 0.10 0.16 0.09 0.05 0.16 0.16 0.14 0.12 0.06 0.11 0.05 0.00 0.00 0.00 0.00 0.00 0.00 0.01 0.00 0.01 0.00 0.00 0.00 0.00 0.00 0.00
0.15 0.20 0.25 0.34 0.30 0.24 0.07 0.02 0.06 0.12 0.25 0.21 0.13 0.18 0.40 0.31 0.19 0.18 0.07 0.11 0.17 0.11 0.07 0.07 0.05 0.03 0.04 0.03 0.00 0.00 0.00 0.00 0.00 0.00 0.00 0.00 0.00 0.00 0.00 0.00 0.00 0.00 0.00 0.00
0.27 0.39 0.54 0.59 0.40 0.22 0.10 0.04 0.25 0.23 0.20 0.19 0.07 0.14 0.29 0.26 0.14 0.09 0.05 0.07 0.13 0.10 0.02 0.01 0.01 0.03 0.03 0.01 0.00 0.00 0.00 0.00 0.00 0.00 0.00 0.00 0.00 0.00 0.00 0.00 0.00 0.00 0.00 0.00
0.39 0.40 0.43 0.44 0.20 0.17 0.19 0.35 0.54 0.51 0.36 0.20 0.04 0.05 0.16 0.12 0.05 0.04 0.02 0.01 0.01 0.02 0.01 0.00 0.01 0.02 0.00 0.00 0.00 0.00 0.00 0.00 0.00 0.00 0.00 0.00 0.00 0.00 0.00 0.00 0.00 0.00 0.00 0.00
0.19 0.19 0.29 0.35 0.41 0.24 0.28 0.32 0.23 0.13 0.16 0.05 0.01 0.01 0.02 0.01 0.01 0.01 0.01 0.01 0.01 0.02 0.04 0.01 0.02 0.02 0.00 0.00 0.00 0.00 0.00 0.00 0.00 0.00 0.00 0.00 0.00 0.00 0.00 0.00 0.00 0.00 0.00 0.00
0.04 0.05 0.16 0.30 0.20 0.12 0.10 0.03 0.01 0.00 0.00 0.00 0.01 0.01 0.01 0.00 0.00 0.01 0.00 0.01 0.01 0.07 0.04 0.02 0.05 0.04 0.00 0.00 0.00 0.00 0.00 0.00 0.00 0.00 0.00 0.00 0.00 0.00 0.00 0.00 0.00 0.00 0.00 0.00
0.02 0.00 0.04 0.05 0.01 0.01 0.00 0.00 0.00 0.00 0.00 0.01 0.01 0.01 0.01 0.01 0.01 0.01 0.00 0.01 0.04 0.03 0.05 0.10 0.08 0.01 0.01 0.00 0.00 0.00 0.00 0.00 0.00 0.00 0.00 0.00 0.00 0.00 0.01 0.02 0.01 0.02 0.03 0.02
0.00 0.01 0.03 0.01 0.00 0.01 0.02 0.01 0.00 0.00 0.01 0.02 0.02 0.01 0.01 0.02 0.01 0.00 0.01 0.01 0.00 0.02 0.09 0.17 0.01 0.01 0.01 0.01 0.01 0.00 0.02 0.02 0.02 0.01 0.00 0.00 0.01 0.04 0.09 0.08 0.06 0.04 0.04 0.05
0.00 0.00 0.01 0.02 0.03 0.04 0.02 0.02 0.01 0.00 0.02 0.01 0.01 0.01 0.01 0.00 0.00 0.00 0.00 0.00 0.01 0.05 0.19 0.09 0.00 0.01 0.02 0.03 0.02 0.02 0.03 0.03 0.03 0.02 0.01 0.01 0.02 0.05 0.13 0.16 0.12 0.10 0.08 0.08
0.00 0.02 0.05 0.05 0.05 0.09 0.06 0.04 0.01 0.01 0.03 0.03 0.01 0.01 0.01 0.00 0.00 0.00 0.00 0.02 0.10 0.08 0.01 0.01 0.01 0.02 0.03 0.02 0.03 0.02 0.02 0.02 0.02 0.02 0.04 0.07 0.08 0.08 0.12 0.17 0.17 0.16 0.10 0.07
0.02 0.07 0.11 0.11 0.08 0.14 0.11 0.04 0.02 0.03 0.06 0.02 0.01 0.00 0.00 0.00 0.00 0.01 0.01 0.04 0.04 0.01 0.01 0.01 0.01 0.01 0.03 0.06 0.06 0.05 0.04 0.04 0.04 0.04 0.09 0.13 0.14 0.11 0.11 0.11 0.14 0.14 0.13 0.11